Change the Weather History Date:

Thursday, October 31, 2013

  Actual Average Record
Temperature  
Mean Temperature 50 °F -  
Max Temperature 55 °F 50 °F - ()
Min Temperature 45 °F 40 °F - ()
Degree Days  
Heating Degree Days 15    
Moisture  
Dew Point 43 °F    
Average Humidity 80    
Maximum Humidity 87    
Minimum Humidity 65    
Precipitation  
Precipitation 0.08 in 0.08 in - ()
Sea Level Pressure  
Sea Level Pressure 29.81 in    
Wind  
Wind Speed 12 mph ()    
Max Wind Speed 22 mph    
Max Gust Speed 34 mph    
Visibility 7.3 miles    
Events Rain    
T = Trace of Precipitation, MM = Missing Value Source: Averaged Metar Reports

Daily Weather History Graph

Daily Weather History Graph

Search for Another Location

Airport or City:

Trip Planner

Search our weather history database for the weather conditions in past years. The results will help you decide how hot, cold, wet, or windy it might be!

Date:

Astronomy

Oct. 31, 2013 Rise Set
Actual Time 7:22 AM GMT 4:54 PM GMT
Civil Twilight 6:45 AM GMT 5:31 PM GMT
Nautical Twilight 6:04 AM GMT 6:12 PM GMT
Astronomical Twilight 5:23 AM GMT 6:52 PM GMT
Moon 3:31 AM GMT (10/31) 3:26 PM GMT (10/31)
Length of Visible Light 10h 45m
Length of Day
9h 32m
Waning Crescent, 11% of the Moon is Illuminated
Oct 31
Waning Crescent
Nov 3
New
Nov 10
First Quarter
Nov 17
Full
Nov 25
Last Quarter

Hourly Weather History & Observations

Time (GMT) Temp. Windchill Dew Point Humidity Pressure Visibility Wind Dir Wind Speed Gust Speed Precip Events Conditions
12:00 AM 46 °F - 43 °F 85% 29.95 in 19 mi SW 8.9 mph - -   Scattered Clouds
12:00 AM 46.4 °F 41.9 °F 42.8 °F 87% 29.95 in 6.2 mi SW 9.2 mph - N/A   Scattered Clouds
12:30 AM 46.4 °F 41.5 °F 42.8 °F 87% 29.92 in 6.2 mi SW 10.4 mph - N/A   Scattered Clouds
1:00 AM 46.4 °F 41.9 °F 42.8 °F 87% 29.92 in 6.2 mi SW 9.2 mph - N/A   Mostly Cloudy
1:30 AM 46.4 °F 41.5 °F 42.8 °F 87% 29.92 in 6.2 mi SW 10.4 mph - N/A   Mostly Cloudy
2:00 AM 46.4 °F 41.9 °F 41.0 °F 81% 29.89 in 6.2 mi SSW 9.2 mph - N/A   Mostly Cloudy
2:30 AM 46.4 °F 42.4 °F 41.0 °F 81% 29.89 in 6.2 mi SSW 8.1 mph - N/A   Mostly Cloudy
3:00 AM 46.4 °F 42.9 °F 41.0 °F 81% 29.89 in 6.2 mi SSW 6.9 mph - N/A   Mostly Cloudy
3:30 AM 46.4 °F 42.9 °F 41.0 °F 81% 29.89 in 6.2 mi SSW 6.9 mph - N/A   Mostly Cloudy
4:00 AM 46.4 °F 42.4 °F 41.0 °F 81% 29.89 in 6.2 mi South 8.1 mph - N/A   Mostly Cloudy
4:30 AM 46.4 °F 42.4 °F 41.0 °F 81% 29.86 in 6.2 mi SSW 8.1 mph - N/A   Scattered Clouds
5:00 AM 46.4 °F 42.4 °F 41.0 °F 81% 29.86 in 6.2 mi SSW 8.1 mph - N/A   Scattered Clouds
5:30 AM 48.2 °F - 42.8 °F 82% 29.86 in 6.2 mi SSW 9.2 mph - N/A   Mostly Cloudy
6:00 AM 49 °F - 42 °F 69% 29.87 in 19 mi SSW 11.2 mph - -   Scattered Clouds
6:00 AM 48.2 °F - 42.8 °F 82% 29.86 in 6.2 mi SSW 11.5 mph - N/A   Mostly Cloudy
6:30 AM 48.2 °F - 42.8 °F 82% 29.83 in 6.2 mi SSW 9.2 mph - N/A   Mostly Cloudy
7:00 AM 50.0 °F - 42.8 °F 76% 29.83 in 6.2 mi SW 13.8 mph - N/A   Mostly Cloudy
7:30 AM 48.2 °F - 42.8 °F 82% 29.83 in 6.2 mi SW 13.8 mph - N/A   Mostly Cloudy
8:00 AM 48.2 °F - 42.8 °F 82% 29.83 in 6.2 mi SW 15.0 mph - N/A   Mostly Cloudy
8:30 AM 48.2 °F - 42.8 °F 82% 29.83 in 6.2 mi SW 16.1 mph - N/A   Scattered Clouds
9:00 AM 50.0 °F - 42.8 °F 76% 29.83 in 6.2 mi SW 15.0 mph - N/A   Partly Cloudy
9:30 AM 50.0 °F - 44.6 °F 82% 29.83 in 6.2 mi SSW 13.8 mph - N/A Rain Light Rain Showers
10:00 AM 51.8 °F - 44.6 °F 76% 29.83 in 6.2 mi SW 15.0 mph - N/A   Scattered Clouds
10:30 AM 53.6 °F - 44.6 °F 72% 29.83 in 6.2 mi SW 18.4 mph - N/A   Partly Cloudy
11:00 AM 53.6 °F - 44.6 °F 72% 29.80 in 6.2 mi SW 18.4 mph - N/A   Partly Cloudy
11:30 AM 53.6 °F - 46.4 °F 77% 29.80 in 6.2 mi SW 18.4 mph - N/A   Mostly Cloudy
12:00 PM 54 °F - 46 °F 65% 29.81 in 19 mi SW 22.4 mph - -   Partly Cloudy
12:00 PM 55.4 °F - 44.6 °F 67% 29.80 in 6.2 mi SW 21.9 mph - N/A   Partly Cloudy
12:30 PM 55.4 °F - 44.6 °F 67% 29.80 in 6.2 mi SW 19.6 mph - N/A   Partly Cloudy
1:00 PM 55.4 °F - 44.6 °F 67% 29.77 in 6.2 mi SW 21.9 mph 34.5 mph N/A   Partly Cloudy
1:30 PM 55.4 °F - 44.6 °F 67% 29.77 in 6.2 mi SW 20.7 mph - N/A Rain Light Rain Showers
2:00 PM 51.8 °F - 46.4 °F 82% 29.77 in 6.2 mi WSW 17.3 mph - N/A   Partly Cloudy
2:30 PM 51.8 °F - 46.4 °F 82% 29.77 in 6.2 mi SW 17.3 mph - N/A   Scattered Clouds
3:00 PM 50 °F - 44 °F 72% 29.78 in 12 mi WSW 15.7 mph - - Rain Light Rain Showers
3:00 PM 50.0 °F - 44.6 °F 82% 29.77 in 6.2 mi WSW 17.3 mph - N/A   Mostly Cloudy
3:30 PM 50.0 °F - 44.6 °F 82% 29.74 in 6.2 mi SW 15.0 mph - N/A   Scattered Clouds
4:00 PM 50.0 °F - 44.6 °F 82% 29.74 in 6.2 mi WSW 17.3 mph - N/A   Partly Cloudy
4:30 PM 48.2 °F - 44.6 °F 87% 29.74 in 6.2 mi WSW 17.3 mph - N/A   Partly Cloudy
5:00 PM 48.2 °F - 44.6 °F 87% 29.74 in 6.2 mi WSW 21.9 mph - N/A Rain Light Rain Showers
5:30 PM 48.2 °F - 44.6 °F 87% 29.74 in 6.2 mi SW 17.3 mph - N/A   Scattered Clouds
6:00 PM 49 °F - 44 °F 76% 29.77 in 19 mi SW 17.9 mph - - Rain Light Rain Showers
6:00 PM 48.2 °F - 44.6 °F 87% 29.74 in 6.2 mi SW 17.3 mph - N/A   Partly Cloudy
6:30 PM 48.2 °F - 42.8 °F 82% 29.74 in 6.2 mi WSW 21.9 mph - N/A   Partly Cloudy
7:00 PM 48.2 °F - 44.6 °F 87% 29.74 in 6.2 mi WSW 21.9 mph - N/A   Partly Cloudy
7:30 PM 48.2 °F - 44.6 °F 87% 29.74 in 6.2 mi WSW 17.3 mph - N/A   Partly Cloudy
8:00 PM 48.2 °F - 44.6 °F 87% 29.74 in 6.2 mi WSW 16.1 mph - N/A   Partly Cloudy
8:30 PM 48.2 °F - 42.8 °F 82% 29.74 in 6.2 mi WSW 13.8 mph - N/A   Partly Cloudy
9:00 PM 48.2 °F - 42.8 °F 82% 29.77 in 6.2 mi SW 15.0 mph - N/A   Partly Cloudy
9:30 PM 48.2 °F - 42.8 °F 82% 29.77 in 6.2 mi SW 10.4 mph - N/A   Partly Cloudy
10:00 PM 48.2 °F - 42.8 °F 82% 29.77 in 6.2 mi WSW 13.8 mph - N/A   Partly Cloudy
10:30 PM 48.2 °F - 42.8 °F 82% 29.77 in 6.2 mi WSW 17.3 mph - N/A   Scattered Clouds
11:00 PM 46.4 °F 40.1 °F 42.8 °F 87% 29.77 in 6.2 mi SW 15.0 mph - N/A   Partly Cloudy
11:30 PM 46.4 °F 39.8 °F 42.8 °F 87% 29.77 in 6.2 mi WSW 16.1 mph - N/A   Partly Cloudy